Regional Weather Roundup
Issued by NWS Little Rock, AR

Home | Current Version | Previous Version | Graphics & Text | Print | Product List | Glossary On
Versions: 1 2 3 4 5 6 7 8 9 10 11 12 13 14 15 16 17 18 19 20 21 22 23 24 25 26 27 28 29 30 31
000
ASUS44 KLZK 290405
RWRLZK

WEATHER ROUNDUP FOR ARKANSAS
NATIONAL WEATHER SERVICE LITTLE ROCK AR
1100 PM CDT WED SEP 28 2016

NOTE: "FAIR" INDICATES FEW OR NO CLOUDS BELOW 12,000 FEET WITH NO
SIGNIFICANT WEATHER AND/OR OBSTRUCTIONS TO VISIBILITY.

ARZ001-003-010-029-290500-
NORTHWEST ARKANSAS

CITY           SKY/WX    TMP DP  RH WIND       PRES   REMARKS
FAYETTEVILLE   CLEAR     58  49  72 N5        30.18R
FORT SMITH     CLEAR     66  47  50 NE8       30.14R
HARRISON       CLEAR     55  47  74 N5        30.19R
BENTONVILLE    CLEAR     57  45  62 NE7       30.19R
ROGERS         CLEAR     56  47  71 N8        30.21R
SILOAM SPGS    CLEAR     57  41  54 NE9       30.20R
HIGHFILL       CLEAR     58  48  69 NE12      30.19R
$$

ARZ004-005-016-290500-
NORTH CENTRAL ARKANSAS

CITY           SKY/WX    TMP DP  RH WIND       PRES   REMARKS
BATESVILLE     CLEAR     63  45  51 N7        30.13R
FLIPPIN        CLEAR     61  45  55 N5        30.15R
MTN HOME       CLEAR     59  46  62 VRB5      30.17R
$$

ARZ040-041-290500-
WEST CENTRAL ARKANSAS

CITY           SKY/WX    TMP DP  RH WIND       PRES   REMARKS
MENA           CLEAR    N/A N/A N/A N6        30.13R
MOUNT IDA      CLEAR     68  46  45 CALM      30.09R
$$

ARZ009-017-025-026-028-290500-
NORTHEAST ARKANSAS

CITY           SKY/WX    TMP DP  RH WIND       PRES   REMARKS
CORNING          N/A     57  50  77 N8        30.14R
JONESBORO      CLEAR     63  47  55 NE9       30.11R
NEWPORT        CLEAR     59  50  72 NE8       30.12R HAZE
WALNUT RIDGE   PTCLDY    57  46  67 N9        30.13R
BLYTHEVILLE    PTCLDY    60  48  64 NE14      30.11R
$$

ARZ022-023-033-042-044-290500-
CENTRAL ARKANSAS

CITY           SKY/WX    TMP DP  RH WIND       PRES   REMARKS
LITTLE ROCK    CLEAR     70  46  42 N13       30.10R
N LITTLE ROCK    N/A     66  48  51 NE9       30.08R
JACKSONVILLE   CLEAR     68  48  48 NE7       30.09R
SEARCY         CLEAR     64  49  57 N8        30.12R
HOT SPRINGS    CLEAR     72  46  39 NE5       30.09R
RUSSELLVILLE   CLEAR     65  47  52 CALM      30.11R
$$

ARZ036-290500-
EAST ARKANSAS

CITY           SKY/WX    TMP DP  RH WIND       PRES   REMARKS
WEST MEMPHIS   CLEAR     64  46  52 NE12      30.07R
$$

ARZ050-053-066-070-073-290500-
SOUTHWEST ARKANSAS

CITY           SKY/WX    TMP DP  RH WIND       PRES   REMARKS
ARKADELPHIA    FAIR      70  52  52 N10       30.07R
TEXARKANA      CLEAR     74  55  51 N5        30.05R
EL DORADO      CLEAR     65  60  84 W3        30.02R
DE QUEEN       CLEAR     66  56  70 CALM      30.05R
$$

ARZ056-057-069-290500-
SOUTHEAST ARKANSAS

CITY           SKY/WX    TMP DP  RH WIND       PRES   REMARKS
PINE BLUFF     PTCLDY    70  49  47 N13       30.07R
STUTTGART      PTCLDY    66  46  48 N13G25    30.09R
MONTICELLO     CLEAR     73  52  47 NE9       30.04R

$$






USA.gov is the U.S. government's official web portal to all federal, state and local government web resources and services.